When you browse on this site, cookies collect data to enhance your experience and personalize the content and advertising you see.
Visit our Privacy Policy to learn more. By continuing to use the site, you agree to this use of cookies and data.

Hourly Weather Baraki Barak

Today, 18 September, Friday

Time Temperature Precipitation Wind Pressure Humidity
00:00 +19°C° 0 mm 1 mps 599 mmHg 27%
01:00 +19°C° 0 mm 1 mps 598 mmHg 28%
02:00 +18°C° 0 mm 1 mps 598 mmHg 29%
03:00 +16°C° 0 mm 1 mps 598 mmHg 31%
04:00 +15°C° 0 mm 1 mps 597 mmHg 32%
05:00 +15°C° 0 mm 2 mps 597 mmHg 33%
06:00 +16°C° 0 mm 1 mps 598 mmHg 32%
07:00 +16°C° 0 mm 1 mps 598 mmHg 30%
08:00 +18°C° 0 mm 1 mps 598 mmHg 29%
09:00 +19°C° 0 mm 1 mps 599 mmHg 26%
10:00 +21°C° 0 mm 1 mps 599 mmHg 24%
11:00 +22°C° 0 mm 1 mps 599 mmHg 21%
12:00 +24°C° 0 mm 1 mps 599 mmHg 18%
13:00 +25°C° 0 mm 1 mps 599 mmHg 16%
14:00 +27°C° 0 mm 1 mps 599 mmHg 13%
15:00 +27°C° 0 mm 2 mps 599 mmHg 12%
16:00 +27°C° 0 mm 2 mps 599 mmHg 11%
17:00 +28°C° 0 mm 2 mps 599 mmHg 10%
18:00 +26°C° 0 mm 2 mps 599 mmHg 13%
19:00 +25°C° 0 mm 2 mps 599 mmHg 16%
20:00 +22°C° 0 mm 3 mps 599 mmHg 19%
21:00 +21°C° 0 mm 2 mps 599 mmHg 21%
22:00 +21°C° 0 mm 1 mps 598 mmHg 23%
23:00 +20°C° 0 mm 1 mps 598 mmHg 26%

Tomorrow, 19 September, Saturday

Time Temperature Precipitation Wind Pressure Humidity
00:00 +19°C° 0 mm 1 mps 597 mmHg 27%
01:00 +18°C° 0 mm 1 mps 597 mmHg 28%
02:00 +18°C° 0 mm 1 mps 597 mmHg 28%
03:00 +16°C° 0 mm 1 mps 596 mmHg 30%
04:00 +15°C° 0 mm 1 mps 596 mmHg 31%
05:00 +15°C° 0 mm 1 mps 596 mmHg 32%
06:00 +16°C° 0 mm 1 mps 596 mmHg 30%
07:00 +16°C° 0 mm 1 mps 597 mmHg 28%
08:00 +18°C° 0 mm 1 mps 598 mmHg 26%
09:00 +20°C° 0 mm 1 mps 598 mmHg 22%
10:00 +22°C° 0 mm 1 mps 599 mmHg 19%
11:00 +24°C° 0 mm 1 mps 599 mmHg 15%
12:00 +25°C° 0 mm 1 mps 599 mmHg 12%
13:00 +26°C° 0 mm 1 mps 599 mmHg 10%
14:00 +28°C° 0 mm 1 mps 599 mmHg 7%
15:00 +28°C° 0 mm 2 mps 599 mmHg 7%
16:00 +28°C° 0 mm 2 mps 599 mmHg 7%
17:00 +28°C° 0 mm 2 mps 599 mmHg 6%
18:00 +27°C° 0 mm 2 mps 599 mmHg 8%
19:00 +25°C° 0 mm 1 mps 599 mmHg 10%
20:00 +23°C° 0 mm 1 mps 598 mmHg 11%
21:00 +22°C° 0 mm 1 mps 598 mmHg 13%
22:00 +22°C° 0 mm 1 mps 598 mmHg 15%
23:00 +21°C° 0 mm 1 mps 598 mmHg 17%

Day after tomorrow, 20 September, Sunday

Time Temperature Precipitation Wind Pressure Humidity
00:00 +20°C° 0 mm 1 mps 597 mmHg 19%
01:00 +17°C° 0 mm 0 mps 597 mmHg 21%
02:00 +16°C° 0 mm 0 mps 596 mmHg 23%
03:00 +16°C° 0 mm 0 mps 596 mmHg 23%
04:00 +15°C° 0 mm 0 mps 596 mmHg 23%
05:00 +14°C° 0 mm 0 mps 596 mmHg 23%
06:00 +16°C° 0 mm 0 mps 597 mmHg 20%
07:00 +18°C° 0 mm 0 mps 598 mmHg 17%
08:00 +22°C° 0 mm 1 mps 599 mmHg 13%
09:00 +23°C° 0 mm 1 mps 600 mmHg 12%
10:00 +25°C° 0 mm 1 mps 600 mmHg 10%
11:00 +26°C° 0 mm 1 mps 600 mmHg 8%
12:00 +27°C° 0 mm 1 mps 600 mmHg 7%
13:00 +28°C° 0 mm 1 mps 600 mmHg 5%
14:00 +29°C° 0 mm 1 mps 600 mmHg 4%
15:00 +29°C° 0 mm 1 mps 600 mmHg 4%
16:00 +29°C° 0 mm 2 mps 600 mmHg 4%
17:00 +30°C° 0 mm 2 mps 599 mmHg 3%
18:00 +28°C° 0 mm 2 mps 599 mmHg 5%
19:00 +26°C° 0 mm 1 mps 599 mmHg 6%
20:00 +24°C° 0 mm 1 mps 599 mmHg 8%
21:00 +23°C° 0 mm 1 mps 598 mmHg 8%
22:00 +21°C° 0 mm 1 mps 598 mmHg 8%
23:00 +20°C° 0 mm 1 mps 598 mmHg 8%

21 September, Monday

Time Temperature Precipitation Wind Pressure Humidity
00:00 +19°C° 0 mm 1 mps 597 mmHg 9%
01:00 +19°C° 0 mm 1 mps 597 mmHg 9%
02:00 +18°C° 0 mm 1 mps 596 mmHg 9%
03:00 +16°C° 0 mm 1 mps 596 mmHg 10%
04:00 +15°C° 0 mm 1 mps 596 mmHg 11%
05:00 +15°C° 0 mm 1 mps 596 mmHg 11%
06:00 +16°C° 0 mm 1 mps 597 mmHg 11%
07:00 +18°C° 0 mm 1 mps 598 mmHg 10%
08:00 +19°C° 0 mm 1 mps 599 mmHg 9%
09:00 +21°C° 0 mm 1 mps 599 mmHg 8%
10:00 +23°C° 0 mm 1 mps 599 mmHg 7%
11:00 +25°C° 0 mm 1 mps 600 mmHg 6%
12:00 +26°C° 0 mm 1 mps 600 mmHg 5%
13:00 +27°C° 0 mm 1 mps 600 mmHg 4%
14:00 +28°C° 0 mm 1 mps 600 mmHg 3%
15:00 +29°C° 0 mm 2 mps 600 mmHg 3%
16:00 +29°C° 0 mm 2 mps 600 mmHg 3%
17:00 +29°C° 0 mm 2 mps 600 mmHg 3%
18:00 +27°C° 0 mm 2 mps 599 mmHg 5%
19:00 +24°C° 0 mm 2 mps 599 mmHg 6%
20:00 +21°C° 0 mm 2 mps 599 mmHg 8%
21:00 +20°C° 0 mm 2 mps 599 mmHg 8%
22:00 +19°C° 0 mm 2 mps 598 mmHg 9%
23:00 +19°C° 0 mm 1 mps 598 mmHg 10%

22 September, Tuesday

Time Temperature Precipitation Wind Pressure Humidity
00:00 +18°C° 0 mm 1 mps 598 mmHg 11%
01:00 +16°C° 0 mm 1 mps 597 mmHg 12%
02:00 +15°C° 0 mm 1 mps 597 mmHg 12%
03:00 +15°C° 0 mm 1 mps 596 mmHg 13%
04:00 +14°C° 0 mm 1 mps 596 mmHg 14%
05:00 +13°C° 0 mm 1 mps 596 mmHg 15%
06:00 +14°C° 0 mm 1 mps 597 mmHg 14%
07:00 +15°C° 0 mm 1 mps 597 mmHg 13%
08:00 +16°C° 0 mm 1 mps 598 mmHg 12%
09:00 +19°C° 0 mm 1 mps 598 mmHg 11%
10:00 +21°C° 0 mm 1 mps 598 mmHg 10%
11:00 +23°C° 0 mm 1 mps 599 mmHg 9%
12:00 +24°C° 0 mm 1 mps 599 mmHg 8%
13:00 +26°C° 0 mm 1 mps 599 mmHg 7%
14:00 +27°C° 0 mm 1 mps 599 mmHg 6%
15:00 +27°C° 0 mm 1 mps 599 mmHg 5%
16:00 +28°C° 0 mm 1 mps 599 mmHg 5%
17:00 +28°C° 0 mm 1 mps 599 mmHg 5%
18:00 +26°C° 0 mm 1 mps 598 mmHg 7%
19:00 +24°C° 0 mm 1 mps 598 mmHg 9%
20:00 +22°C° 0 mm 1 mps 597 mmHg 10%
21:00 +21°C° 0 mm 1 mps 597 mmHg 12%
22:00 +20°C° 0 mm 1 mps 597 mmHg 14%
23:00 +17°C° 0 mm 0 mps 597 mmHg 16%

23 September, Wednesday

Time Temperature Precipitation Wind Pressure Humidity
00:00 +16°C° 0 mm 0 mps 596 mmHg 18%
01:00 +16°C° 0 mm 0 mps 596 mmHg 19%
02:00 +15°C° 0 mm 0 mps 595 mmHg 20%
03:00 +14°C° 0 mm 0 mps 595 mmHg 21%
04:00 +15°C° 0 mm 1 mps 595 mmHg 22%
05:00 +14°C° 0 mm 1 mps 595 mmHg 23%
06:00 +15°C° 0 mm 1 mps 596 mmHg 21%
07:00 +18°C° 0 mm 1 mps 596 mmHg 18%
08:00 +19°C° 0 mm 1 mps 597 mmHg 16%
09:00 +21°C° 0 mm 1 mps 598 mmHg 14%
10:00 +21°C° 0 mm 0 mps 598 mmHg 12%
11:00 +22°C° 0 mm 0 mps 598 mmHg 10%
12:00 +25°C° 0 mm 1 mps 598 mmHg 9%
13:00 +27°C° 0 mm 1 mps 598 mmHg 8%
14:00 +28°C° 0 mm 1 mps 598 mmHg 7%
15:00 +28°C° 0 mm 2 mps 598 mmHg 6%
16:00 +28°C° 0 mm 3 mps 598 mmHg 6%
17:00 +28°C° 0 mm 4 mps 598 mmHg 6%
18:00 +26°C° 0 mm 3 mps 598 mmHg 8%
19:00 +24°C° 0 mm 2 mps 598 mmHg 11%
20:00 +21°C° 0 mm 2 mps 597 mmHg 14%
21:00 +20°C° 0 mm 2 mps 597 mmHg 16%
22:00 +20°C° 0 mm 1 mps 597 mmHg 19%
23:00 +19°C° 0 mm 1 mps 597 mmHg 22%
Show more